Regional Weather Roundup
Issued by NWS

Current Version | Previous Version | Text Only | Print | Product List | Glossary On
Versions: 1 2 3 4 5 6 7 8 9 10 11 12 13 14 15 16 17 18 19 20 21 22 23 24 25 26 27 28 29 30 31 32 33 34 35 36 37 38 39 40 41 42 43 44 45 46 47 48 49 50
000
ASUS45 KABQ 230110
RWRNM
WEATHER ROUNDUP FOR NEW MEXICO
NATIONAL WEATHER SERVICE ALBUQUERQUE NM
700 PM MDT FRI AUG 22 2014

NOTE: "FAIR" MEANS FEW OR NO CLOUDS BELOW 12,000 FEET AGL WITH NO
       SIGNIFICANT WEATHER OR OBSTRUCTIONS TO VISION.

      THIS PRODUCT IS RELEASED AS TWO VERSIONS.  ONE VERSION NEAR
      THE TOP OF THE HOUR CONTAINING PRELIMINARY DATA FROM ALBUQUERQUE
      AND OTHER STATIONS.  A FINAL VERSION WITH ADDITIONAL DATA IS
      ISSUED ABOUT 10 MINUTES AFTER THE HOUR.

NMZ501-503-504-510>518-230200-
NORTHWEST PLATEAU/NORTHCENTRAL MOUNTAINS

CITY           SKY/WX    TMP DP  RH WIND       PRES   REMARKS
FARMINGTON     MOCLDY    61  54  77 E14       30.12S
LOS ALAMOS     PTCLDY    60  51  73 CALM      30.26R
SANTA FE       PTCLDY    67  50  54 NW5       30.19S
TAOS           MOCLDY    59  50  72 S5        30.25S
ANGEL FIRE     FAIR      53  48  83 S6        30.30S

$$
NMZ402-403-502-505>509-230200-
WESTCENTRAL MOUNTAINS/SOUTHWEST MOUNTAINS

CITY           SKY/WX    TMP DP  RH WIND       PRES   REMARKS
GALLUP         MOSUNNY   71  42  35 SW14G21   30.17S
SILVER CITY    PTCLDY    77  48  36 W12G20    30.13F

$$
NMZ407-409-411-412-230200-
SOUTHERN DESERTS

CITY           SKY/WX    TMP DP  RH WIND       PRES   REMARKS
LORDSBURG      MOCLDY    79  54  41 SW15G21   30.05F
DEMING         TSTM      67  63  87 S10G20    30.06R FOG
LAS CRUCES     PTCLDY    75  61  61 SE8       30.08F
HOLLOMAN AFB   MOCLDY    75  63  64 S9        30.05F
ALAMOGORDO     CLOUDY    73  61  64 S7        30.07F
T OR C         PTCLDY    78  59  51 SE14      30.06S

$$
NMZ519>523-230200-
CENTRAL VALLEYS/CENTRAL HIGHLANDS

CITY           SKY/WX    TMP DP  RH WIND       PRES   REMARKS
ALBUQUERQUE    LGT RAIN  68  55  63 W28       30.19R
DOUBLE EAGLE   RAIN      57  54  88 W18G29    30.22R
MORIARTY ARPT  MOCLDY    65  52  62 NW6       30.19S
CLINES CORNERS MOCLDY    65  51  60 W13       30.20S
BELEN          DRIZZLE   64  61  90 NW9       30.15S
SOCORRO        CLOUDY    63  59  87 NW6       30.13R

$$
NMZ524>526-539-540-230200-
SOUTHCENTRAL MOUNTAINS

CITY           SKY/WX    TMP DP  RH WIND       PRES   REMARKS
RUIDOSO        CLOUDY    63  57  82 NW5       30.23S

$$
NMZ527>531-230200-
NORTHEAST HIGHLANDS/NORTHEAST PLAINS

CITY           SKY/WX    TMP DP  RH WIND       PRES   REMARKS
LAS VEGAS      MOCLDY    65  48  54 S9        30.17F
RATON          MOCLDY    68  52  56 S15       30.10F
CLAYTON        PTCLDY    80  45  28 SW14      30.01S

$$
NMZ532>537-230200-
EASTCENTRAL PLAINS

CITY           SKY/WX    TMP DP  RH WIND       PRES   REMARKS
TUCUMCARI      PTCLDY    83  54  36 W12       29.97F
CANNON AFB     MOCLDY    72  61  68 E1        30.03R
CLOVIS AIRPORT   N/A     70  63  78 W20       30.05F THUNDER

$$
NMZ028-029-538-230200-
SOUTHEAST PLAINS

CITY           SKY/WX    TMP DP  RH WIND       PRES   REMARKS
ROSWELL        PTCLDY    86  54  33 SW12      29.97R
ARTESIA        PTCLDY    82  59  44 SE24G32   30.02R
CARLSBAD       CLOUDY    85  59  41 NW6       29.96S
HOBBS          TSTM      77  63  61 SW22G41   30.03R


$$


USA.gov is the U.S. government's official web portal to all federal, state and local government web resources and services.